Time,TemperatureF,DewpointF,PressureIn,WindDirection,WindDirectionDegrees,WindSpeedMPH,WindSpeedGustMPH,Humidity,HourlyPrecipIn,Conditions,Clouds,dailyrainin,SoftwareType,DateUTC
2013-09-17 00:00:00,64.4,59.5,30.24,SSE,163,0.0,5.0,84,0.00,,,0.00,Wunderground v.1.15,2013-09-17 04:00:00,
2013-09-17 00:05:00,64.1,59.2,30.24,SSE,163,0.0,5.0,84,0.00,,,0.00,Wunderground v.1.15,2013-09-17 04:05:00,
2013-09-17 00:10:00,64.0,59.1,30.24,SSE,163,0.0,5.0,84,0.00,,,0.00,Wunderground v.1.15,2013-09-17 04:10:00,
2013-09-17 00:15:00,63.8,59.2,30.24,SSE,163,0.0,5.0,85,0.00,,,0.00,Wunderground v.1.15,2013-09-17 04:15:00,
2013-09-17 00:20:00,63.7,59.1,30.24,SSE,163,0.0,5.0,85,0.00,,,0.00,Wunderground v.1.15,2013-09-17 04:20:00,
2013-09-17 00:25:00,63.7,59.4,30.24,SSE,163,0.0,5.0,86,0.00,,,0.00,Wunderground v.1.15,2013-09-17 04:25:00,
2013-09-17 00:30:00,63.7,59.4,30.24,SSE,163,0.0,5.0,86,0.00,,,0.00,Wunderground v.1.15,2013-09-17 04:30:00,
2013-09-17 00:40:00,63.8,59.2,30.24,SSE,163,0.0,5.0,85,0.00,,,0.00,Wunderground v.1.15,2013-09-17 04:40:00,
2013-09-17 00:45:00,63.9,59.3,30.24,East,96,0.0,5.0,85,0.00,,,0.00,Wunderground v.1.15,2013-09-17 04:45:00,
2013-09-17 00:50:00,63.9,59.6,30.24,ENE,74,0.0,5.0,86,0.00,,,0.00,Wunderground v.1.15,2013-09-17 04:50:00,
2013-09-17 00:55:00,63.8,59.2,30.24,ENE,74,0.0,5.0,85,0.00,,,0.00,Wunderground v.1.15,2013-09-17 04:55:00,
2013-09-17 01:00:00,63.8,59.2,30.24,ENE,74,0.0,5.0,85,0.00,,,0.00,Wunderground v.1.15,2013-09-17 05:00:00,
2013-09-17 01:05:00,63.7,59.4,30.24,ENE,74,0.0,5.0,86,0.00,,,0.00,Wunderground v.1.15,2013-09-17 05:05:00,
2013-09-17 01:10:00,63.5,59.2,30.24,ENE,74,0.0,5.0,86,0.00,,,0.00,Wunderground v.1.15,2013-09-17 05:10:00,
2013-09-17 01:15:00,63.4,59.5,30.24,ENE,74,0.0,5.0,87,0.00,,,0.00,Wunderground v.1.15,2013-09-17 05:15:00,
2013-09-17 01:20:00,63.3,59.4,30.24,ENE,74,0.0,5.0,87,0.00,,,0.00,Wunderground v.1.15,2013-09-17 05:20:00,
2013-09-17 01:25:00,63.3,59.7,30.24,ENE,74,0.0,5.0,88,0.00,,,0.00,Wunderground v.1.15,2013-09-17 05:25:00,
2013-09-17 01:30:00,63.2,59.6,30.24,ENE,74,0.0,5.0,88,0.00,,,0.00,Wunderground v.1.15,2013-09-17 05:30:00,
2013-09-17 01:35:00,63.2,59.6,30.24,ENE,74,0.0,5.0,88,0.00,,,0.00,Wunderground v.1.15,2013-09-17 05:35:00,
2013-09-17 01:40:00,63.2,59.6,30.24,ENE,74,0.0,5.0,88,0.00,,,0.00,Wunderground v.1.15,2013-09-17 05:40:00,
2013-09-17 01:45:00,63.2,59.6,30.24,ENE,74,0.0,5.0,88,0.00,,,0.00,Wunderground v.1.15,2013-09-17 05:45:00,
2013-09-17 01:50:00,63.2,59.9,30.24,ENE,74,0.0,5.0,89,0.00,,,0.00,Wunderground v.1.15,2013-09-17 05:50:00,
2013-09-17 01:55:00,63.2,59.9,30.24,ENE,74,0.0,5.0,89,0.00,,,0.00,Wunderground v.1.15,2013-09-17 05:55:00,
2013-09-17 02:00:00,63.2,59.9,30.24,ENE,74,0.0,5.0,89,0.00,,,0.00,Wunderground v.1.15,2013-09-17 06:00:00,
2013-09-17 02:10:00,63.1,59.8,30.24,ENE,74,0.0,5.0,89,0.00,,,0.00,Wunderground v.1.15,2013-09-17 06:10:00,
2013-09-17 02:15:00,63.1,59.8,30.24,ENE,74,0.0,5.0,89,0.00,,,0.00,Wunderground v.1.15,2013-09-17 06:15:00,
2013-09-17 02:20:00,63.1,59.8,30.24,ENE,74,0.0,5.0,89,0.00,,,0.00,Wunderground v.1.15,2013-09-17 06:20:00,
2013-09-17 02:25:00,63.0,59.7,30.24,ENE,74,0.0,5.0,89,0.00,,,0.00,Wunderground v.1.15,2013-09-17 06:25:00,
2013-09-17 02:30:00,63.0,59.7,30.24,ENE,74,0.0,5.0,89,0.00,,,0.00,Wunderground v.1.15,2013-09-17 06:30:00,
2013-09-17 02:35:00,62.9,59.6,30.24,ENE,74,0.0,5.0,89,0.00,,,0.00,Wunderground v.1.15,2013-09-17 06:35:00,
2013-09-17 02:40:00,62.8,59.5,30.24,ENE,74,0.0,5.0,89,0.00,,,0.00,Wunderground v.1.15,2013-09-17 06:40:00,
2013-09-17 02:50:00,62.6,59.6,30.24,ENE,74,0.0,5.0,90,0.00,,,0.00,Wunderground v.1.15,2013-09-17 06:50:00,
2013-09-17 02:55:00,62.7,59.7,30.25,ENE,74,0.0,5.0,90,0.00,,,0.00,Wunderground v.1.15,2013-09-17 06:55:00,
2013-09-17 03:00:00,62.6,59.6,30.25,ENE,74,0.0,5.0,90,0.00,,,0.00,Wunderground v.1.15,2013-09-17 07:00:00,
2013-09-17 03:05:00,62.5,59.5,30.25,ENE,74,0.0,5.0,90,0.00,,,0.00,Wunderground v.1.15,2013-09-17 07:05:00,
2013-09-17 03:10:00,62.5,59.8,30.25,ENE,74,0.0,5.0,91,0.00,,,0.00,Wunderground v.1.15,2013-09-17 07:10:00,
2013-09-17 03:15:00,62.5,59.8,30.25,ENE,74,0.0,5.0,91,0.00,,,0.00,Wunderground v.1.15,2013-09-17 07:15:00,
2013-09-17 03:20:00,62.4,59.7,30.24,ENE,74,0.0,5.0,91,0.00,,,0.00,Wunderground v.1.15,2013-09-17 07:20:00,
2013-09-17 03:25:00,62.4,59.7,30.24,ENE,74,0.0,5.0,91,0.00,,,0.00,Wunderground v.1.15,2013-09-17 07:25:00,
2013-09-17 03:30:00,62.3,59.9,30.25,ENE,74,0.0,5.0,92,0.00,,,0.00,Wunderground v.1.15,2013-09-17 07:30:00,
2013-09-17 03:35:00,62.3,59.6,30.25,ENE,74,0.0,5.0,91,0.00,,,0.00,Wunderground v.1.15,2013-09-17 07:35:00,
2013-09-17 03:40:00,62.2,59.5,30.25,ENE,74,0.0,5.0,91,0.00,,,0.00,Wunderground v.1.15,2013-09-17 07:40:00,
2013-09-17 03:45:00,62.1,59.4,30.25,ENE,74,0.0,5.0,91,0.00,,,0.00,Wunderground v.1.15,2013-09-17 07:45:00,
2013-09-17 03:50:00,62.1,59.4,30.25,ENE,74,0.0,5.0,91,0.00,,,0.00,Wunderground v.1.15,2013-09-17 07:50:00,
2013-09-17 03:55:00,62.0,59.3,30.25,ENE,74,0.0,5.0,91,0.00,,,0.00,Wunderground v.1.15,2013-09-17 07:55:00,
2013-09-17 04:00:00,61.9,58.9,30.25,ENE,74,0.0,5.0,90,0.00,,,0.00,Wunderground v.1.15,2013-09-17 08:00:00,
2013-09-17 04:05:00,61.8,59.1,30.25,ENE,74,0.0,5.0,91,0.00,,,0.00,Wunderground v.1.15,2013-09-17 08:05:00,
2013-09-17 04:10:00,61.7,58.7,30.25,ENE,74,0.0,5.0,90,0.00,,,0.00,Wunderground v.1.15,2013-09-17 08:10:00,
2013-09-17 04:15:00,61.6,58.6,30.25,ENE,74,0.0,5.0,90,0.00,,,0.00,Wunderground v.1.15,2013-09-17 08:15:00,
2013-09-17 04:20:00,61.4,58.4,30.25,ENE,74,0.0,5.0,90,0.00,,,0.00,Wunderground v.1.15,2013-09-17 08:20:00,
2013-09-17 04:25:00,61.2,58.2,30.25,ENE,74,0.0,5.0,90,0.00,,,0.00,Wunderground v.1.15,2013-09-17 08:25:00,
2013-09-17 04:30:00,61.1,57.8,30.25,ENE,74,0.0,5.0,89,0.00,,,0.00,Wunderground v.1.15,2013-09-17 08:30:00,
2013-09-17 04:40:00,60.8,57.5,30.25,ENE,74,0.0,5.0,89,0.00,,,0.00,Wunderground v.1.15,2013-09-17 08:40:00,
2013-09-17 04:45:00,60.7,57.1,30.25,ENE,74,0.0,5.0,88,0.00,,,0.00,Wunderground v.1.15,2013-09-17 08:45:00,
2013-09-17 04:50:00,60.6,57.0,30.25,ENE,74,0.0,5.0,88,0.00,,,0.00,Wunderground v.1.15,2013-09-17 08:50:00,
2013-09-17 04:55:00,60.4,56.8,30.26,ENE,74,0.0,5.0,88,0.00,,,0.00,Wunderground v.1.15,2013-09-17 08:55:00,
2013-09-17 05:00:00,60.3,56.7,30.26,ENE,74,0.0,5.0,88,0.00,,,0.00,Wunderground v.1.15,2013-09-17 09:00:00,
2013-09-17 05:05:00,60.1,56.5,30.26,ENE,74,0.0,5.0,88,0.00,,,0.00,Wunderground v.1.15,2013-09-17 09:05:00,
2013-09-17 05:10:00,60.0,56.4,30.26,ENE,74,0.0,5.0,88,0.00,,,0.00,Wunderground v.1.15,2013-09-17 09:10:00,
2013-09-17 05:15:00,59.8,56.6,30.26,ENE,74,0.0,5.0,89,0.00,,,0.00,Wunderground v.1.15,2013-09-17 09:15:00,
2013-09-17 05:25:00,59.4,56.2,30.26,ENE,74,0.0,5.0,89,0.00,,,0.00,Wunderground v.1.15,2013-09-17 09:25:00,
2013-09-17 05:30:00,59.3,56.4,30.26,ENE,74,0.0,5.0,90,0.00,,,0.00,Wunderground v.1.15,2013-09-17 09:30:00,
2013-09-17 05:35:00,59.2,56.6,30.27,ENE,74,0.0,5.0,91,0.00,,,0.00,Wunderground v.1.15,2013-09-17 09:35:00,
2013-09-17 05:40:00,59.1,56.2,30.27,ENE,74,0.0,5.0,90,0.00,,,0.00,Wunderground v.1.15,2013-09-17 09:40:00,
2013-09-17 05:45:00,59.0,56.1,30.27,ENE,74,0.0,5.0,90,0.00,,,0.00,Wunderground v.1.15,2013-09-17 09:45:00,
2013-09-17 05:50:00,59.0,56.1,30.27,ENE,74,0.0,5.0,90,0.00,,,0.00,Wunderground v.1.15,2013-09-17 09:50:00,
2013-09-17 05:55:00,58.9,56.3,30.28,ENE,74,0.0,5.0,91,0.00,,,0.00,Wunderground v.1.15,2013-09-17 09:55:00,
2013-09-17 06:00:00,58.8,56.2,30.28,ENE,74,0.0,5.0,91,0.00,,,0.00,Wunderground v.1.15,2013-09-17 10:00:00,
2013-09-17 06:10:00,58.7,56.1,30.28,ENE,74,0.0,5.0,91,0.00,,,0.00,Wunderground v.1.15,2013-09-17 10:10:00,
2013-09-17 06:20:00,58.7,56.1,30.28,ENE,74,0.0,5.0,91,0.00,,,0.00,Wunderground v.1.15,2013-09-17 10:20:00,
2013-09-17 06:25:00,58.7,56.1,30.28,ENE,74,0.0,5.0,91,0.00,,,0.00,Wunderground v.1.15,2013-09-17 10:25:00,
2013-09-17 06:30:00,58.6,56.3,30.28,ENE,74,0.0,5.0,92,0.00,,,0.00,Wunderground v.1.15,2013-09-17 10:30:00,
2013-09-17 06:35:00,58.6,56.3,30.28,ENE,74,0.0,5.0,92,0.00,,,0.00,Wunderground v.1.15,2013-09-17 10:35:00,
2013-09-17 06:40:00,58.6,56.3,30.28,ENE,74,0.0,5.0,92,0.00,,,0.00,Wunderground v.1.15,2013-09-17 10:40:00,
2013-09-17 06:45:00,58.5,55.9,30.28,ENE,74,0.0,5.0,91,0.00,,,0.00,Wunderground v.1.15,2013-09-17 10:45:00,
2013-09-17 06:50:00,58.4,55.8,30.28,ENE,74,0.0,5.0,91,0.00,,,0.00,Wunderground v.1.15,2013-09-17 10:50:00,
2013-09-17 06:55:00,58.4,55.8,30.28,ENE,74,0.0,5.0,91,0.00,,,0.00,Wunderground v.1.15,2013-09-17 10:55:00,
2013-09-17 07:00:00,58.3,55.7,30.28,ENE,74,0.0,5.0,91,0.00,,,0.00,Wunderground v.1.15,2013-09-17 11:00:00,
2013-09-17 07:05:00,58.1,55.2,30.29,ENE,74,0.0,5.0,90,0.00,,,0.00,Wunderground v.1.15,2013-09-17 11:05:00,
2013-09-17 07:10:00,58.0,55.1,30.29,ENE,74,0.0,5.0,90,0.00,,,0.00,Wunderground v.1.15,2013-09-17 11:10:00,
2013-09-17 07:15:00,57.9,55.0,30.29,ENE,74,0.0,5.0,90,0.00,,,0.00,Wunderground v.1.15,2013-09-17 11:15:00,
2013-09-17 07:20:00,57.8,54.9,30.29,ENE,74,0.0,5.0,90,0.00,,,0.00,Wunderground v.1.15,2013-09-17 11:20:00,
2013-09-17 07:25:00,57.6,54.4,30.30,ENE,74,0.0,5.0,89,0.00,,,0.00,Wunderground v.1.15,2013-09-17 11:25:00,
2013-09-17 07:30:00,57.6,54.7,30.30,ENE,74,0.0,5.0,90,0.00,,,0.00,Wunderground v.1.15,2013-09-17 11:30:00,
2013-09-17 07:35:00,57.5,54.3,30.30,ENE,74,0.0,5.0,89,0.00,,,0.00,Wunderground v.1.15,2013-09-17 11:35:00,
2013-09-17 07:40:00,57.6,54.7,30.30,ENE,74,0.0,5.0,90,0.00,,,0.00,Wunderground v.1.15,2013-09-17 11:40:00,
2013-09-17 07:45:00,57.6,54.7,30.30,ENE,74,0.0,5.0,90,0.00,,,0.00,Wunderground v.1.15,2013-09-17 11:45:00,
2013-09-17 07:50:00,57.6,55.0,30.30,ENE,74,0.0,5.0,91,0.00,,,0.00,Wunderground v.1.15,2013-09-17 11:50:00,
2013-09-17 08:00:00,57.7,54.8,30.31,ENE,74,0.0,5.0,90,0.00,,,0.00,Wunderground v.1.15,2013-09-17 12:00:00,
2013-09-17 08:10:00,57.8,54.6,30.31,ENE,74,0.0,5.0,89,0.00,,,0.00,Wunderground v.1.15,2013-09-17 12:10:00,
2013-09-17 08:15:00,57.8,54.9,30.31,ENE,74,0.0,5.0,90,0.00,,,0.00,Wunderground v.1.15,2013-09-17 12:15:00,
2013-09-17 08:20:00,57.9,55.0,30.31,ENE,74,0.0,5.0,90,0.00,,,0.00,Wunderground v.1.15,2013-09-17 12:20:00,
2013-09-17 08:25:00,57.9,55.0,30.31,ENE,74,0.0,5.0,90,0.00,,,0.00,Wunderground v.1.15,2013-09-17 12:25:00,
2013-09-17 08:30:00,58.0,55.4,30.31,ENE,74,0.0,5.0,91,0.00,,,0.00,Wunderground v.1.15,2013-09-17 12:30:00,
2013-09-17 08:35:00,58.0,55.4,30.32,ENE,74,0.0,5.0,91,0.00,,,0.00,Wunderground v.1.15,2013-09-17 12:35:00,
2013-09-17 08:40:00,58.0,55.4,30.32,ENE,74,0.0,5.0,91,0.00,,,0.00,Wunderground v.1.15,2013-09-17 12:40:00,
2013-09-17 08:45:00,58.1,55.5,30.32,ENE,74,0.0,5.0,91,0.00,,,0.00,Wunderground v.1.15,2013-09-17 12:45:00,
2013-09-17 08:50:00,58.2,55.6,30.32,ENE,74,0.0,5.0,91,0.00,,,0.00,Wunderground v.1.15,2013-09-17 12:50:00,
2013-09-17 08:55:00,58.2,55.3,30.33,ENE,74,0.0,5.0,90,0.00,,,0.00,Wunderground v.1.15,2013-09-17 12:55:00,
2013-09-17 09:00:00,58.2,55.0,30.33,ENE,74,0.0,5.0,89,0.00,,,0.00,Wunderground v.1.15,2013-09-17 13:00:00,
2013-09-17 09:05:00,58.2,54.7,30.33,ENE,74,0.0,5.0,88,0.00,,,0.00,Wunderground v.1.15,2013-09-17 13:05:00,
2013-09-17 09:10:00,58.2,54.3,30.33,SSW,211,0.0,5.0,87,0.00,,,0.00,Wunderground v.1.15,2013-09-17 13:10:00,
2013-09-17 09:15:00,58.2,54.3,30.33,SSW,212,0.0,5.0,87,0.00,,,0.00,Wunderground v.1.15,2013-09-17 13:15:00,
2013-09-17 09:20:00,58.2,54.3,30.34,SSW,212,0.0,5.0,87,0.00,,,0.00,Wunderground v.1.15,2013-09-17 13:20:00,
2013-09-17 09:25:00,58.4,54.2,30.34,SSW,212,0.0,5.0,86,0.00,,,0.00,Wunderground v.1.15,2013-09-17 13:25:00,
2013-09-17 09:30:00,58.5,54.3,30.34,SSW,213,0.0,5.0,86,0.00,,,0.00,Wunderground v.1.15,2013-09-17 13:30:00,
2013-09-17 09:35:00,58.5,53.7,30.34,SSW,213,0.0,5.0,84,0.00,,,0.00,Wunderground v.1.15,2013-09-17 13:35:00,
2013-09-17 09:40:00,58.4,53.6,30.34,SSW,213,0.0,5.0,84,0.00,,,0.00,Wunderground v.1.15,2013-09-17 13:40:00,
2013-09-17 09:45:00,58.4,53.6,30.34,SSW,213,0.0,5.0,84,0.00,,,0.00,Wunderground v.1.15,2013-09-17 13:45:00,
2013-09-17 09:50:00,58.4,53.6,30.34,SSW,213,0.0,5.0,84,0.00,,,0.00,Wunderground v.1.15,2013-09-17 13:50:00,
2013-09-17 09:55:00,58.5,53.7,30.34,SSW,213,0.0,5.0,84,0.00,,,0.00,Wunderground v.1.15,2013-09-17 13:55:00,
2013-09-17 10:00:00,58.6,53.8,30.35,SSW,213,0.0,5.0,84,0.00,,,0.00,Wunderground v.1.15,2013-09-17 14:00:00,
2013-09-17 10:05:00,58.8,53.6,30.35,SSW,213,0.0,5.0,83,0.00,,,0.00,Wunderground v.1.15,2013-09-17 14:05:00,
2013-09-17 10:10:00,59.0,53.8,30.35,SW,231,0.0,5.0,83,0.00,,,0.00,Wunderground v.1.15,2013-09-17 14:10:00,
2013-09-17 10:15:00,59.3,54.1,30.35,SW,231,0.0,5.0,83,0.00,,,0.00,Wunderground v.1.15,2013-09-17 14:15:00,
2013-09-17 10:20:00,59.6,53.8,30.35,WSW,245,0.0,5.0,81,0.00,,,0.00,Wunderground v.1.15,2013-09-17 14:20:00,
2013-09-17 10:25:00,59.8,53.6,30.35,ESE,117,0.0,5.0,80,0.00,,,0.00,Wunderground v.1.15,2013-09-17 14:25:00,
2013-09-17 10:30:00,60.2,53.7,30.35,South,180,0.0,5.0,79,0.00,,,0.00,Wunderground v.1.15,2013-09-17 14:30:00,
2013-09-17 10:35:00,60.5,54.0,30.35,South,169,0.0,5.0,79,0.00,,,0.00,Wunderground v.1.15,2013-09-17 14:35:00,
2013-09-17 10:45:00,60.8,53.5,30.35,West,266,0.0,5.0,77,0.00,,,0.00,Wunderground v.1.15,2013-09-17 14:45:00,
2013-09-17 10:55:00,61.2,53.9,30.35,WNW,293,0.0,5.0,77,0.00,,,0.00,Wunderground v.1.15,2013-09-17 14:55:00,
2013-09-17 11:00:00,61.4,53.8,30.35,SSW,213,0.0,5.0,76,0.00,,,0.00,Wunderground v.1.15,2013-09-17 15:00:00,
2013-09-17 11:10:00,62.1,54.1,30.35,SW,230,0.0,5.0,75,0.00,,,0.00,Wunderground v.1.15,2013-09-17 15:10:00,
2013-09-17 11:15:00,62.4,54.4,30.35,SSE,159,0.0,5.0,75,0.00,,,0.00,Wunderground v.1.15,2013-09-17 15:15:00,
2013-09-17 11:20:00,62.7,54.3,30.35,SSE,161,0.0,5.0,74,0.00,,,0.00,Wunderground v.1.15,2013-09-17 15:20:00,
2013-09-17 11:25:00,63.2,54.8,30.35,SW,232,0.0,5.0,74,0.00,,,0.00,Wunderground v.1.15,2013-09-17 15:25:00,
2013-09-17 11:30:00,63.4,54.2,30.35,SW,234,0.0,5.0,72,0.00,,,0.00,Wunderground v.1.15,2013-09-17 15:30:00,
2013-09-17 11:35:00,63.9,55.1,30.35,SW,234,0.0,5.0,73,0.00,,,0.00,Wunderground v.1.15,2013-09-17 15:35:00,
2013-09-17 11:40:00,63.9,54.7,30.35,South,173,0.0,5.0,72,0.00,,,0.00,Wunderground v.1.15,2013-09-17 15:40:00,
2013-09-17 11:45:00,63.4,53.8,30.35,West,261,0.0,5.0,71,0.00,,,0.00,Wunderground v.1.15,2013-09-17 15:45:00,
2013-09-17 11:50:00,63.4,54.2,30.35,NW,317,0.0,5.0,72,0.00,,,0.00,Wunderground v.1.15,2013-09-17 15:50:00,
2013-09-17 11:55:00,63.4,54.6,30.35,West,281,0.0,5.0,73,0.00,,,0.00,Wunderground v.1.15,2013-09-17 15:55:00,
2013-09-17 12:00:00,63.6,54.0,30.35,SW,216,0.0,5.0,71,0.00,,,0.00,Wunderground v.1.15,2013-09-17 16:00:00,
2013-09-17 12:05:00,63.9,54.7,30.35,SW,221,0.0,5.0,72,0.00,,,0.00,Wunderground v.1.15,2013-09-17 16:05:00,
2013-09-17 12:10:00,63.9,54.3,30.35,SW,223,0.0,5.0,71,0.00,,,0.00,Wunderground v.1.15,2013-09-17 16:10:00,
2013-09-17 12:15:00,63.9,54.7,30.35,SW,222,0.0,5.0,72,0.00,,,0.00,Wunderground v.1.15,2013-09-17 16:15:00,
2013-09-17 12:20:00,64.1,55.3,30.34,WSW,238,0.0,5.0,73,0.00,,,0.00,Wunderground v.1.15,2013-09-17 16:20:00,
2013-09-17 12:25:00,64.0,54.8,30.34,SSW,196,0.0,5.0,72,0.00,,,0.00,Wunderground v.1.15,2013-09-17 16:25:00,
2013-09-17 12:30:00,64.1,55.6,30.34,South,186,0.0,5.0,74,0.00,,,0.00,Wunderground v.1.15,2013-09-17 16:30:00,
2013-09-17 12:35:00,64.4,55.9,30.34,South,186,0.0,5.0,74,0.00,,,0.00,Wunderground v.1.15,2013-09-17 16:35:00,
2013-09-17 12:40:00,64.6,55.7,30.35,South,186,0.0,5.0,73,0.00,,,0.00,Wunderground v.1.15,2013-09-17 16:40:00,
2013-09-17 12:45:00,64.7,56.2,30.35,South,186,0.0,5.0,74,0.00,,,0.00,Wunderground v.1.15,2013-09-17 16:45:00,
2013-09-17 12:50:00,64.8,55.9,30.34,SSW,198,0.0,5.0,73,0.00,,,0.00,Wunderground v.1.15,2013-09-17 16:50:00,
2013-09-17 12:55:00,64.9,56.0,30.34,SW,214,0.0,5.0,73,0.00,,,0.00,Wunderground v.1.15,2013-09-17 16:55:00,
2013-09-17 13:00:00,65.0,55.4,30.34,WSW,248,0.0,5.0,71,0.00,,,0.00,Wunderground v.1.15,2013-09-17 17:00:00,
2013-09-17 13:05:00,65.0,55.0,30.34,SSW,209,0.0,5.0,70,0.00,,,0.00,Wunderground v.1.15,2013-09-17 17:05:00,
2013-09-17 13:10:00,64.9,54.9,30.34,East,101,0.0,5.0,70,0.00,,,0.00,Wunderground v.1.15,2013-09-17 17:10:00,
2013-09-17 13:15:00,64.7,55.5,30.34,East,101,0.0,5.0,72,0.00,,,0.00,Wunderground v.1.15,2013-09-17 17:15:00,
2013-09-17 13:25:00,64.8,54.4,30.34,SSW,200,0.0,5.0,69,0.00,,,0.00,Wunderground v.1.15,2013-09-17 17:25:00,
2013-09-17 13:30:00,65.0,55.8,30.34,SSE,147,0.0,5.0,72,0.00,,,0.00,Wunderground v.1.15,2013-09-17 17:30:00,
2013-09-17 13:35:00,65.5,55.5,30.33,SSE,147,0.0,5.0,70,0.00,,,0.00,Wunderground v.1.15,2013-09-17 17:35:00,
2013-09-17 13:40:00,65.7,55.2,30.33,SW,232,0.0,5.0,69,0.00,,,0.00,Wunderground v.1.15,2013-09-17 17:40:00,
2013-09-17 13:45:00,65.5,55.5,30.33,SW,234,0.0,5.0,70,0.00,,,0.00,Wunderground v.1.15,2013-09-17 17:45:00,
2013-09-17 13:50:00,65.4,55.4,30.33,SW,234,0.0,5.0,70,0.00,,,0.00,Wunderground v.1.15,2013-09-17 17:50:00,
2013-09-17 13:55:00,65.2,55.6,30.33,SW,236,0.0,5.0,71,0.00,,,0.00,Wunderground v.1.15,2013-09-17 17:55:00,
2013-09-17 14:00:00,65.3,55.7,30.32,SW,236,0.0,5.0,71,0.00,,,0.00,Wunderground v.1.15,2013-09-17 18:00:00,
2013-09-17 14:05:00,65.3,55.3,30.33,South,169,0.0,5.0,70,0.00,,,0.00,Wunderground v.1.15,2013-09-17 18:05:00,
2013-09-17 14:15:00,66.0,55.9,30.32,SSW,200,0.0,5.0,70,0.00,,,0.00,Wunderground v.1.15,2013-09-17 18:15:00,
2013-09-17 14:20:00,66.6,55.7,30.32,NNE,30,0.0,5.0,68,0.00,,,0.00,Wunderground v.1.15,2013-09-17 18:20:00,
2013-09-17 14:25:00,66.4,55.5,30.32,NNE,13,0.0,5.0,68,0.00,,,0.00,Wunderground v.1.15,2013-09-17 18:25:00,
2013-09-17 14:30:00,66.7,55.8,30.32,WSW,238,0.0,5.0,68,0.00,,,0.00,Wunderground v.1.15,2013-09-17 18:30:00,
2013-09-17 14:35:00,67.4,56.1,30.32,South,189,0.0,5.0,67,0.00,,,0.00,Wunderground v.1.15,2013-09-17 18:35:00,
2013-09-17 14:40:00,67.9,56.5,30.31,WSW,242,0.0,5.0,67,0.00,,,0.00,Wunderground v.1.15,2013-09-17 18:40:00,
2013-09-17 14:45:00,67.9,56.1,30.31,WNW,287,0.0,5.0,66,0.00,,,0.00,Wunderground v.1.15,2013-09-17 18:45:00,
2013-09-17 14:50:00,67.2,55.9,30.31,SW,219,0.0,5.0,67,0.00,,,0.00,Wunderground v.1.15,2013-09-17 18:50:00,
2013-09-17 14:55:00,66.5,55.2,30.31,NE,49,0.0,5.0,67,0.00,,,0.00,Wunderground v.1.15,2013-09-17 18:55:00,
2013-09-17 15:00:00,66.1,56.0,30.31,WSW,250,0.0,5.0,70,0.00,,,0.00,Wunderground v.1.15,2013-09-17 19:00:00,
2013-09-17 15:10:00,65.8,56.1,30.30,ENE,75,0.0,5.0,71,0.00,,,0.00,Wunderground v.1.15,2013-09-17 19:10:00,
2013-09-17 15:15:00,65.7,56.4,30.30,SSW,202,0.0,5.0,72,0.00,,,0.00,Wunderground v.1.15,2013-09-17 19:15:00,
2013-09-17 15:20:00,65.7,56.0,30.31,NE,34,0.0,5.0,71,0.00,,,0.00,Wunderground v.1.15,2013-09-17 19:20:00,
2013-09-17 15:25:00,65.5,56.6,30.30,West,279,0.0,5.0,73,0.00,,,0.00,Wunderground v.1.15,2013-09-17 19:25:00,
2013-09-17 15:30:00,65.5,55.8,30.30,West,276,0.0,5.0,71,0.00,,,0.00,Wunderground v.1.15,2013-09-17 19:30:00,
2013-09-17 15:35:00,65.4,56.5,30.30,ESE,103,0.0,5.0,73,0.00,,,0.00,Wunderground v.1.15,2013-09-17 19:35:00,
2013-09-17 15:40:00,65.4,56.5,30.30,WNW,296,0.0,5.0,73,0.00,,,0.00,Wunderground v.1.15,2013-09-17 19:40:00,
2013-09-17 15:45:00,65.5,56.6,30.30,SE,142,0.0,5.0,73,0.00,,,0.00,Wunderground v.1.15,2013-09-17 19:45:00,
2013-09-17 15:55:00,65.6,56.3,30.30,South,182,0.0,5.0,72,0.00,,,0.00,Wunderground v.1.15,2013-09-17 19:55:00,
2013-09-17 16:00:00,65.6,57.1,30.30,South,182,0.0,5.0,74,0.00,,,0.00,Wunderground v.1.15,2013-09-17 20:00:00,
2013-09-17 16:05:00,65.7,56.8,30.30,South,182,0.0,5.0,73,0.00,,,0.00,Wunderground v.1.15,2013-09-17 20:05:00,
2013-09-17 16:10:00,65.8,56.9,30.30,South,169,0.0,5.0,73,0.00,,,0.00,Wunderground v.1.15,2013-09-17 20:10:00,
2013-09-17 16:15:00,65.6,57.5,30.29,NW,305,0.0,5.0,75,0.00,,,0.00,Wunderground v.1.15,2013-09-17 20:15:00,
2013-09-17 16:20:00,65.4,57.3,30.29,North,360,0.0,5.0,75,0.00,,,0.00,Wunderground v.1.15,2013-09-17 20:20:00,
2013-09-17 16:25:00,65.5,58.1,30.29,North,360,0.0,5.0,77,0.00,,,0.00,Wunderground v.1.15,2013-09-17 20:25:00,
2013-09-17 16:30:00,65.4,56.9,30.29,WSW,254,0.0,5.0,74,0.00,,,0.00,Wunderground v.1.15,2013-09-17 20:30:00,
2013-09-17 16:35:00,65.0,56.9,30.29,WSW,238,0.0,5.0,75,0.00,,,0.00,Wunderground v.1.15,2013-09-17 20:35:00,
2013-09-17 16:40:00,64.9,57.5,30.28,WSW,238,0.0,5.0,77,0.00,,,0.00,Wunderground v.1.15,2013-09-17 20:40:00,
2013-09-17 16:45:00,64.8,57.4,30.28,WSW,238,0.0,5.0,77,0.00,,,0.00,Wunderground v.1.15,2013-09-17 20:45:00,
2013-09-17 16:50:00,64.8,57.1,30.28,SW,219,0.0,5.0,76,0.00,,,0.00,Wunderground v.1.15,2013-09-17 20:50:00,
2013-09-17 16:55:00,64.8,57.4,30.28,SW,219,0.0,5.0,77,0.00,,,0.00,Wunderground v.1.15,2013-09-17 20:55:00,
2013-09-17 17:00:00,64.7,57.0,30.28,West,271,0.0,5.0,76,0.00,,,0.00,Wunderground v.1.15,2013-09-17 21:00:00,
2013-09-17 17:10:00,64.6,57.6,30.28,West,271,0.0,5.0,78,0.00,,,0.00,Wunderground v.1.15,2013-09-17 21:10:00,
2013-09-17 17:15:00,64.5,57.5,30.28,SW,217,0.0,5.0,78,0.00,,,0.00,Wunderground v.1.15,2013-09-17 21:15:00,
2013-09-17 17:20:00,64.3,57.6,30.28,SW,217,0.0,5.0,79,0.00,,,0.00,Wunderground v.1.15,2013-09-17 21:20:00,
2013-09-17 17:25:00,64.3,57.6,30.28,SW,217,0.0,5.0,79,0.00,,,0.00,Wunderground v.1.15,2013-09-17 21:25:00,
2013-09-17 17:30:00,64.0,57.0,30.28,SW,217,0.0,5.0,78,0.00,,,0.00,Wunderground v.1.15,2013-09-17 21:30:00,
2013-09-17 17:35:00,63.9,57.6,30.28,SW,217,0.0,5.0,80,0.00,,,0.00,Wunderground v.1.15,2013-09-17 21:35:00,
2013-09-17 17:40:00,63.8,57.5,30.28,SSE,157,0.0,5.0,80,0.00,,,0.00,Wunderground v.1.15,2013-09-17 21:40:00,
2013-09-17 17:45:00,63.8,57.5,30.28,SSE,157,0.0,5.0,80,0.00,,,0.00,Wunderground v.1.15,2013-09-17 21:45:00,
2013-09-17 17:50:00,63.8,57.5,30.27,SSE,157,0.0,5.0,80,0.00,,,0.00,Wunderground v.1.15,2013-09-17 21:50:00,
2013-09-17 17:55:00,63.7,57.4,30.27,SSE,157,0.0,5.0,80,0.00,,,0.00,Wunderground v.1.15,2013-09-17 21:55:00,
2013-09-17 18:00:00,63.5,57.6,30.27,SSE,157,0.0,5.0,81,0.00,,,0.00,Wunderground v.1.15,2013-09-17 22:00:00,
2013-09-17 18:05:00,63.4,57.5,30.28,SSE,157,0.0,5.0,81,0.00,,,0.00,Wunderground v.1.15,2013-09-17 22:05:00,
2013-09-17 18:10:00,63.1,57.5,30.28,SSE,157,0.0,5.0,82,0.00,,,0.00,Wunderground v.1.15,2013-09-17 22:10:00,
2013-09-17 18:15:00,62.9,57.3,30.28,SSE,157,0.0,5.0,82,0.00,,,0.00,Wunderground v.1.15,2013-09-17 22:15:00,
2013-09-17 18:20:00,62.6,57.4,30.28,SSE,157,0.0,5.0,83,0.00,,,0.00,Wunderground v.1.15,2013-09-17 22:20:00,
2013-09-17 18:25:00,62.3,56.7,30.28,SSE,159,0.0,5.0,82,0.00,,,0.00,Wunderground v.1.15,2013-09-17 22:25:00,
2013-09-17 18:30:00,62.1,56.9,30.28,SSE,159,0.0,5.0,83,0.00,,,0.00,Wunderground v.1.15,2013-09-17 22:30:00,
2013-09-17 18:35:00,61.9,56.7,30.28,SSE,159,0.0,5.0,83,0.00,,,0.00,Wunderground v.1.15,2013-09-17 22:35:00,
2013-09-17 18:40:00,61.7,56.5,30.28,SSE,159,0.0,5.0,83,0.00,,,0.00,Wunderground v.1.15,2013-09-17 22:40:00,
2013-09-17 18:45:00,61.5,56.3,30.28,SSE,159,0.0,5.0,83,0.00,,,0.00,Wunderground v.1.15,2013-09-17 22:45:00,
2013-09-17 18:50:00,61.3,56.4,30.28,SSE,159,0.0,5.0,84,0.00,,,0.00,Wunderground v.1.15,2013-09-17 22:50:00,
2013-09-17 18:55:00,61.1,56.6,30.28,SSE,159,0.0,5.0,85,0.00,,,0.00,Wunderground v.1.15,2013-09-17 22:55:00,
2013-09-17 19:00:00,60.9,56.4,30.28,SSE,159,0.0,5.0,85,0.00,,,0.00,Wunderground v.1.15,2013-09-17 23:00:00,
2013-09-17 19:10:00,60.8,56.3,30.28,SSE,159,0.0,5.0,85,0.00,,,0.00,Wunderground v.1.15,2013-09-17 23:10:00,
2013-09-17 19:15:00,60.6,56.4,30.28,SSE,159,0.0,5.0,86,0.00,,,0.00,Wunderground v.1.15,2013-09-17 23:15:00,
2013-09-17 19:25:00,60.3,56.1,30.28,SSE,159,0.0,5.0,86,0.00,,,0.00,Wunderground v.1.15,2013-09-17 23:25:00,
2013-09-17 19:30:00,60.1,55.9,30.28,SSE,159,0.0,5.0,86,0.00,,,0.00,Wunderground v.1.15,2013-09-17 23:30:00,
2013-09-17 19:35:00,59.9,56.0,30.28,SSE,159,0.0,5.0,87,0.00,,,0.00,Wunderground v.1.15,2013-09-17 23:35:00,
2013-09-17 19:40:00,59.7,55.8,30.28,SSE,159,0.0,5.0,87,0.00,,,0.00,Wunderground v.1.15,2013-09-17 23:40:00,
2013-09-17 19:50:00,59.5,55.9,30.29,SSE,159,0.0,5.0,88,0.00,,,0.00,Wunderground v.1.15,2013-09-17 23:50:00,
2013-09-17 19:55:00,59.4,56.2,30.29,SSE,159,0.0,5.0,89,0.00,,,0.00,Wunderground v.1.15,2013-09-17 23:55:00,
2013-09-17 20:00:00,59.4,56.2,30.29,SSE,159,0.0,5.0,89,0.00,,,0.00,Wunderground v.1.15,2013-09-18 00:00:00,
2013-09-17 20:10:00,59.3,56.1,30.29,SSE,159,0.0,5.0,89,0.00,,,0.00,Wunderground v.1.15,2013-09-18 00:10:00,
2013-09-17 20:15:00,59.2,56.0,30.29,SSE,159,0.0,5.0,89,0.00,,,0.00,Wunderground v.1.15,2013-09-18 00:15:00,
2013-09-17 20:20:00,59.2,56.0,30.29,SSE,159,0.0,5.0,89,0.00,,,0.00,Wunderground v.1.15,2013-09-18 00:20:00,
2013-09-17 20:25:00,59.1,55.9,30.30,SSE,159,0.0,5.0,89,0.00,,,0.00,Wunderground v.1.15,2013-09-18 00:25:00,
2013-09-17 20:30:00,59.1,55.9,30.30,SSE,159,0.0,5.0,89,0.00,,,0.00,Wunderground v.1.15,2013-09-18 00:30:00,
2013-09-17 20:35:00,59.0,55.8,30.30,SSE,159,0.0,5.0,89,0.00,,,0.00,Wunderground v.1.15,2013-09-18 00:35:00,
2013-09-17 20:40:00,59.0,55.8,30.30,SSE,159,0.0,5.0,89,0.00,,,0.00,Wunderground v.1.15,2013-09-18 00:40:00,
2013-09-17 20:45:00,58.9,56.0,30.31,SSE,159,0.0,5.0,90,0.00,,,0.00,Wunderground v.1.15,2013-09-18 00:45:00,
2013-09-17 20:50:00,58.9,56.0,30.31,SSE,159,0.0,5.0,90,0.00,,,0.00,Wunderground v.1.15,2013-09-18 00:50:00,
2013-09-17 20:55:00,58.8,55.9,30.31,SSE,159,0.0,5.0,90,0.00,,,0.00,Wunderground v.1.15,2013-09-18 00:55:00,
2013-09-17 21:00:00,58.7,55.8,30.31,SSE,159,0.0,5.0,90,0.00,,,0.00,Wunderground v.1.15,2013-09-18 01:00:00,
2013-09-17 21:05:00,58.7,55.8,30.32,SSE,159,0.0,5.0,90,0.00,,,0.00,Wunderground v.1.15,2013-09-18 01:05:00,
2013-09-17 21:10:00,58.7,55.8,30.32,SSE,159,0.0,5.0,90,0.00,,,0.00,Wunderground v.1.15,2013-09-18 01:10:00,
2013-09-17 21:15:00,58.7,55.8,30.32,SSE,159,0.0,5.0,90,0.00,,,0.00,Wunderground v.1.15,2013-09-18 01:15:00,
2013-09-17 21:20:00,58.7,55.8,30.32,SSE,159,0.0,5.0,90,0.00,,,0.00,Wunderground v.1.15,2013-09-18 01:20:00,
2013-09-17 21:25:00,58.6,55.7,30.32,SSE,159,0.0,5.0,90,0.00,,,0.00,Wunderground v.1.15,2013-09-18 01:25:00,
2013-09-17 21:35:00,58.6,55.7,30.33,SSE,159,0.0,5.0,90,0.00,,,0.00,Wunderground v.1.15,2013-09-18 01:35:00,
2013-09-17 21:40:00,58.6,55.7,30.33,SSE,159,0.0,5.0,90,0.00,,,0.00,Wunderground v.1.15,2013-09-18 01:40:00,
2013-09-17 21:45:00,58.5,55.6,30.33,SSE,159,0.0,5.0,90,0.00,,,0.00,Wunderground v.1.15,2013-09-18 01:45:00,
2013-09-17 21:50:00,58.5,55.6,30.33,SSE,159,0.0,5.0,90,0.00,,,0.00,Wunderground v.1.15,2013-09-18 01:50:00,
2013-09-17 21:55:00,58.5,55.6,30.33,SSE,159,0.0,5.0,90,0.00,,,0.00,Wunderground v.1.15,2013-09-18 01:55:00,
2013-09-17 22:00:00,58.5,55.6,30.33,SSE,159,0.0,5.0,90,0.00,,,0.00,Wunderground v.1.15,2013-09-18 02:00:00,
2013-09-17 22:10:00,58.4,55.8,30.33,SSE,159,0.0,5.0,91,0.00,,,0.00,Wunderground v.1.15,2013-09-18 02:10:00,
2013-09-17 22:15:00,58.4,55.8,30.33,SSE,159,0.0,5.0,91,0.00,,,0.00,Wunderground v.1.15,2013-09-18 02:15:00,
2013-09-17 22:20:00,58.4,55.8,30.33,SSE,159,0.0,5.0,91,0.00,,,0.00,Wunderground v.1.15,2013-09-18 02:20:00,
2013-09-17 22:25:00,58.3,55.7,30.33,SSE,159,0.0,5.0,91,0.00,,,0.00,Wunderground v.1.15,2013-09-18 02:25:00,
2013-09-17 22:30:00,58.3,55.7,30.33,SSE,159,0.0,5.0,91,0.00,,,0.00,Wunderground v.1.15,2013-09-18 02:30:00,
2013-09-17 22:35:00,58.3,55.7,30.33,SSE,159,0.0,5.0,91,0.00,,,0.00,Wunderground v.1.15,2013-09-18 02:35:00,
2013-09-17 22:45:00,58.2,55.9,30.33,SSE,159,0.0,5.0,92,0.00,,,0.00,Wunderground v.1.15,2013-09-18 02:45:00,
2013-09-17 22:50:00,58.2,55.6,30.33,SSE,159,0.0,5.0,91,0.00,,,0.00,Wunderground v.1.15,2013-09-18 02:50:00,
2013-09-17 22:55:00,58.2,55.6,30.34,SSE,159,0.0,5.0,91,0.00,,,0.00,Wunderground v.1.15,2013-09-18 02:55:00,
2013-09-17 23:00:00,58.2,55.6,30.34,SSE,159,0.0,5.0,91,0.00,,,0.00,Wunderground v.1.15,2013-09-18 03:00:00,
2013-09-17 23:05:00,58.1,55.2,30.34,SSE,159,0.0,5.0,90,0.00,,,0.00,Wunderground v.1.15,2013-09-18 03:05:00,
2013-09-17 23:10:00,58.2,55.6,30.34,SSE,159,0.0,5.0,91,0.00,,,0.00,Wunderground v.1.15,2013-09-18 03:10:00,
2013-09-17 23:15:00,58.1,55.2,30.34,SSE,159,0.0,5.0,90,0.00,,,0.00,Wunderground v.1.15,2013-09-18 03:15:00,
2013-09-17 23:25:00,58.1,55.2,30.34,SSE,159,0.0,5.0,90,0.00,,,0.00,Wunderground v.1.15,2013-09-18 03:25:00,
2013-09-17 23:30:00,58.1,55.2,30.34,SSE,159,0.0,5.0,90,0.00,,,0.00,Wunderground v.1.15,2013-09-18 03:30:00,
2013-09-17 23:40:00,58.1,55.2,30.33,SSE,159,0.0,5.0,90,0.00,,,0.00,Wunderground v.1.15,2013-09-18 03:40:00,
2013-09-17 23:45:00,58.1,55.2,30.33,SSE,159,0.0,5.0,90,0.00,,,0.00,Wunderground v.1.15,2013-09-18 03:45:00,
2013-09-17 23:50:00,58.1,55.2,30.34,SSE,159,0.0,5.0,90,0.00,,,0.00,Wunderground v.1.15,2013-09-18 03:50:00,
2013-09-17 23:55:00,58.1,55.2,30.34,SSE,159,0.0,5.0,90,0.00,,,0.00,Wunderground v.1.15,2013-09-18 03:55:00,